• In Uzbekistan
  • List of Countries
  • For 7 days
  • Water Temperature
  • Satellite Maps
  • Weather Map
  • Weather Widgets
  • user-avatar
    Login

    Hourly Weather Wallenhorst

    Today, 22 October, Monday

    Time Temperature Precipitation Wind Pressure Humidity
    00:00 +8°C° 0 mm 2 mps 761 mmHg 80%
    01:00 +9°C° 0 mm 2 mps 761 mmHg 80%
    02:00 +8°C° 0 mm 2 mps 761 mmHg 81%
    03:00 +8°C° 0 mm 2 mps 761 mmHg 82%
    04:00 +8°C° 0 mm 2 mps 761 mmHg 83%
    05:00 +9°C° 0.1 mm 3 mps 761 mmHg 85%
    06:00 +9°C° 0.1 mm 3 mps 762 mmHg 87%
    07:00 +10°C° 0.1 mm 3 mps 762 mmHg 89%
    08:00 +11°C° 0.1 mm 4 mps 763 mmHg 85%
    09:00 +11°C° 0.1 mm 4 mps 763 mmHg 82%
    10:00 +12°C° 0.1 mm 5 mps 763 mmHg 78%
    11:00 +12°C° 0 mm 5 mps 764 mmHg 72%
    12:00 +13°C° 0 mm 5 mps 764 mmHg 66%
    13:00 +13°C° 0 mm 5 mps 765 mmHg 59%
    14:00 +13°C° 0 mm 4 mps 765 mmHg 59%
    15:00 +12°C° 0 mm 4 mps 765 mmHg 59%
    16:00 +12°C° 0 mm 4 mps 765 mmHg 59%
    17:00 +11°C° 0 mm 3 mps 765 mmHg 61%
    18:00 +10°C° 0 mm 3 mps 765 mmHg 62%
    19:00 +9°C° 0 mm 2 mps 766 mmHg 64%
    20:00 +8°C° 0 mm 2 mps 766 mmHg 69%
    21:00 +7°C° 0 mm 2 mps 766 mmHg 73%
    22:00 +5°C° 0 mm 3 mps 766 mmHg 77%
    23:00 +5°C° 0 mm 3 mps 765 mmHg 77%

    Tomorrow, 23 October, Tuesday

    Time Temperature Precipitation Wind Pressure Humidity
    00:00 +5°C° 0 mm 4 mps 765 mmHg 77%
    01:00 +5°C° 0 mm 4 mps 764 mmHg 77%
    02:00 +5°C° 0 mm 5 mps 764 mmHg 76%
    03:00 +6°C° 0 mm 5 mps 763 mmHg 75%
    04:00 +5°C° 0 mm 6 mps 762 mmHg 74%
    05:00 +6°C° 0 mm 7 mps 761 mmHg 75%
    06:00 +8°C° 0 mm 7 mps 761 mmHg 76%
    07:00 +8°C° 0 mm 7 mps 760 mmHg 77%
    08:00 +9°C° 0 mm 8 mps 760 mmHg 77%
    09:00 +9°C° 0 mm 8 mps 759 mmHg 76%
    10:00 +10°C° 0 mm 8 mps 759 mmHg 76%
    11:00 +10°C° 0.3 mm 8 mps 758 mmHg 79%
    12:00 +10°C° 0.3 mm 8 mps 758 mmHg 81%
    13:00 +10°C° 0.3 mm 8 mps 758 mmHg 84%
    14:00 +11°C° 0.3 mm 8 mps 757 mmHg 83%
    15:00 +11°C° 0.3 mm 8 mps 757 mmHg 83%
    16:00 +11°C° 0.3 mm 8 mps 757 mmHg 83%
    17:00 +11°C° 0 mm 8 mps 757 mmHg 83%
    18:00 +11°C° 0 mm 8 mps 756 mmHg 83%
    19:00 +11°C° 0 mm 8 mps 756 mmHg 83%
    20:00 +11°C° 0.1 mm 8 mps 756 mmHg 84%
    21:00 +12°C° 0.1 mm 8 mps 756 mmHg 85%
    22:00 +12°C° 0.1 mm 8 mps 756 mmHg 86%
    23:00 +12°C° 0.1 mm 8 mps 756 mmHg 86%

    Day after tomorrow, 24 October, Wednesday

    Time Temperature Precipitation Wind Pressure Humidity
    00:00 +12°C° 0.1 mm 8 mps 756 mmHg 87%
    01:00 +12°C° 0.1 mm 8 mps 756 mmHg 87%
    02:00 +12°C° 0.4 mm 8 mps 756 mmHg 88%
    03:00 +12°C° 0.4 mm 8 mps 756 mmHg 89%
    04:00 +12°C° 0.4 mm 8 mps 756 mmHg 90%
    05:00 +12°C° 0.2 mm 7 mps 756 mmHg 90%
    06:00 +12°C° 0.2 mm 7 mps 756 mmHg 90%
    07:00 +13°C° 0.2 mm 6 mps 756 mmHg 90%
    08:00 +13°C° 0.1 mm 6 mps 756 mmHg 88%
    09:00 +13°C° 0.1 mm 6 mps 757 mmHg 87%
    10:00 +13°C° 0.1 mm 5 mps 757 mmHg 86%
    11:00 +13°C° 0.1 mm 6 mps 758 mmHg 85%
    12:00 +13°C° 0.1 mm 6 mps 758 mmHg 84%
    13:00 +14°C° 0.1 mm 6 mps 758 mmHg 82%
    14:00 +14°C° 0 mm 5 mps 758 mmHg 83%
    15:00 +14°C° 0 mm 5 mps 758 mmHg 84%
    16:00 +14°C° 0 mm 5 mps 758 mmHg 85%
    17:00 +13°C° 0.1 mm 5 mps 758 mmHg 86%
    18:00 +13°C° 0.1 mm 5 mps 758 mmHg 88%
    19:00 +13°C° 0.1 mm 5 mps 758 mmHg 89%
    20:00 +13°C° 0.1 mm 5 mps 758 mmHg 90%
    21:00 +13°C° 0.1 mm 5 mps 758 mmHg 90%
    22:00 +12°C° 0.1 mm 5 mps 758 mmHg 91%
    23:00 +12°C° 0.1 mm 5 mps 757 mmHg 91%

    25 October, Thursday

    Time Temperature Precipitation Wind Pressure Humidity
    00:00 +12°C° 0.1 mm 5 mps 757 mmHg 90%
    01:00 +12°C° 0.1 mm 5 mps 757 mmHg 90%
    02:00 +10°C° 0 mm 5 mps 757 mmHg 88%
    03:00 +10°C° 0 mm 5 mps 756 mmHg 87%
    04:00 +9°C° 0 mm 5 mps 756 mmHg 86%
    05:00 +9°C° 0 mm 5 mps 756 mmHg 85%
    06:00 +10°C° 0 mm 4 mps 756 mmHg 85%
    07:00 +10°C° 0 mm 4 mps 756 mmHg 84%
    08:00 +11°C° 0 mm 4 mps 756 mmHg 83%
    09:00 +10°C° 0 mm 5 mps 756 mmHg 82%
    10:00 +10°C° 0 mm 5 mps 756 mmHg 81%
    11:00 +12°C° 0 mm 5 mps 756 mmHg 79%
    12:00 +12°C° 0 mm 5 mps 755 mmHg 77%
    13:00 +13°C° 0 mm 5 mps 755 mmHg 76%
    14:00 +13°C° 0 mm 5 mps 755 mmHg 77%
    15:00 +13°C° 0 mm 5 mps 755 mmHg 77%
    16:00 +12°C° 0 mm 5 mps 754 mmHg 78%
    17:00 +12°C° 0 mm 4 mps 754 mmHg 81%
    18:00 +11°C° 0 mm 4 mps 754 mmHg 85%
    19:00 +10°C° 0 mm 4 mps 754 mmHg 88%
    20:00 +10°C° 0 mm 3 mps 754 mmHg 89%
    21:00 +9°C° 0 mm 3 mps 753 mmHg 90%
    22:00 +9°C° 0 mm 3 mps 753 mmHg 91%
    23:00 +9°C° 0 mm 3 mps 753 mmHg 89%

    26 October, Friday

    Time Temperature Precipitation Wind Pressure Humidity
    00:00 +9°C° 0 mm 3 mps 752 mmHg 87%
    01:00 +9°C° 0 mm 3 mps 752 mmHg 85%
    02:00 +8°C° 0 mm 4 mps 751 mmHg 83%
    03:00 +8°C° 0 mm 4 mps 750 mmHg 82%
    04:00 +8°C° 0 mm 4 mps 750 mmHg 80%
    05:00 +8°C° 0 mm 4 mps 749 mmHg 81%
    06:00 +7°C° 0 mm 4 mps 749 mmHg 82%
    07:00 +7°C° 0 mm 4 mps 748 mmHg 83%
    08:00 +8°C° 0 mm 5 mps 748 mmHg 82%
    09:00 +8°C° 0 mm 5 mps 747 mmHg 81%
    10:00 +9°C° 0 mm 6 mps 747 mmHg 79%
    11:00 +9°C° 0.1 mm 6 mps 746 mmHg 79%
    12:00 +10°C° 0.1 mm 6 mps 746 mmHg 78%
    13:00 +10°C° 0.1 mm 6 mps 746 mmHg 78%
    14:00 +10°C° 0.3 mm 6 mps 745 mmHg 80%
    15:00 +9°C° 0.3 mm 6 mps 745 mmHg 82%
    16:00 +9°C° 0.3 mm 5 mps 745 mmHg 84%
    17:00 +8°C° 0.5 mm 5 mps 745 mmHg 84%
    18:00 +7°C° 0.5 mm 4 mps 745 mmHg 85%
    19:00 +8°C° 0.5 mm 3 mps 745 mmHg 85%
    20:00 +7°C° 0 mm 3 mps 745 mmHg 85%
    21:00 +7°C° 0 mm 3 mps 745 mmHg 86%
    22:00 +5°C° 0 mm 3 mps 745 mmHg 86%
    23:00 +5°C° 0 mm 3 mps 745 mmHg 87%

    27 October, Saturday

    Time Temperature Precipitation Wind Pressure Humidity
    00:00 +4°C° 0 mm 3 mps 744 mmHg 88%
    01:00 +4°C° 0 mm 3 mps 744 mmHg 89%
    02:00 +5°C° 0 mm 2 mps 744 mmHg 89%
    03:00 +4°C° 0 mm 2 mps 744 mmHg 90%
    04:00 +4°C° 0 mm 2 mps 743 mmHg 91%
    05:00 +3°C° 0 mm 2 mps 743 mmHg 91%
    06:00 +3°C° 0 mm 2 mps 743 mmHg 91%
    07:00 +4°C° 0 mm 1 mps 743 mmHg 91%
    08:00 +5°C° 0 mm 1 mps 743 mmHg 85%
    09:00 +6°C° 0 mm 1 mps 743 mmHg 80%
    10:00 +7°C° 0 mm 1 mps 743 mmHg 75%
    11:00 +7°C° 0.1 mm 2 mps 743 mmHg 70%
    12:00 +8°C° 0.1 mm 2 mps 743 mmHg 64%
    13:00 +9°C° 0.1 mm 2 mps 743 mmHg 59%
    14:00 +9°C° 0 mm 2 mps 742 mmHg 60%
    15:00 +9°C° 0 mm 2 mps 742 mmHg 61%
    16:00 +8°C° 0 mm 2 mps 742 mmHg 62%
    17:00 +7°C° 0 mm 2 mps 742 mmHg 67%
    18:00 +7°C° 0 mm 1 mps 742 mmHg 72%
    19:00 +5°C° 0 mm 1 mps 742 mmHg 76%
    20:00 +5°C° 0 mm 1 mps 742 mmHg 78%
    21:00 +4°C° 0 mm 2 mps 742 mmHg 80%
    22:00 +3°C° 0 mm 2 mps 742 mmHg 82%
    23:00 +3°C° 0 mm 2 mps 742 mmHg 84%

    28 October, Sunday

    Time Temperature Precipitation Wind Pressure Humidity
    00:00 +2°C° 0 mm 2 mps 742 mmHg 86%
    01:00 +2°C° 0 mm 2 mps 742 mmHg 88%
    02:00 +2°C° 0 mm 2 mps 742 mmHg 89%
    03:00 +2°C° 0 mm 2 mps 742 mmHg 90%
    04:00 +1°C° 0 mm 2 mps 743 mmHg 91%
    05:00 +1°C° 0 mm 2 mps 743 mmHg 91%
    06:00 +1°C° 0 mm 2 mps 743 mmHg 91%
    07:00 +1°C° 0 mm 2 mps 743 mmHg 92%
    08:00 +3°C° 0 mm 2 mps 744 mmHg 86%
    09:00 +4°C° 0 mm 2 mps 744 mmHg 81%
    10:00 +5°C° 0 mm 2 mps 745 mmHg 76%
    11:00 +6°C° 0.1 mm 2 mps 745 mmHg 71%
    12:00 +7°C° 0.1 mm 2 mps 745 mmHg 67%
    13:00 +8°C° 0.1 mm 2 mps 746 mmHg 63%
    14:00 +8°C° 0.5 mm 2 mps 746 mmHg 66%
    15:00 +8°C° 0.5 mm 2 mps 746 mmHg 68%
    16:00 +7°C° 0.5 mm 2 mps 746 mmHg 71%
    17:00 +6°C° 0.2 mm 2 mps 747 mmHg 76%
    18:00 +5°C° 0.2 mm 2 mps 747 mmHg 80%
    19:00 +4°C° 0.2 mm 2 mps 748 mmHg 85%
    20:00 +4°C° 0 mm 2 mps 748 mmHg 87%
    21:00 +3°C° 0 mm 2 mps 748 mmHg 89%
    22:00 +3°C° 0 mm 2 mps 748 mmHg 91%
    23:00 +2°C° 0 mm 2 mps 749 mmHg 91%
    Show more